Regional Weather Roundup
Issued by NWS

Home | Current Version | Previous Version | Text Only | Print | Product List | Glossary Off
Versions: 1 2 3 4 5 6 7 8 9 10 11 12 13 14 15 16 17 18 19 20 21 22 23 24 25 26 27 28 29 30 31 32 33 34 35 36 37 38 39 40 41 42 43 44 45 46 47 48 49 50

000
ASUS45 KBOI 230410
RWRID

IDAHO REGIONAL WEATHER ROUNDUP
NATIONAL WEATHER SERVICE BOISE ID
900 PM MST SUN JAN 22 2017

NOTE: "FAIR" INDICATES FEW OR NO CLOUDS BELOW 12000 FEET
WITH NO SIGNIFICANT WEATHER AND/OR OBSTRUCTIONS TO VISIBILITY

IDZ012-014-230500-
SOUTHWEST IDAHO


CITY           SKY/WX    TMP DP  RH WIND       PRES   REMARKS
BOISE          MOCLDY    33  29  85 S5        29.65S WCI  29
CALDWELL       MOCLDY    30  29  96 SE7       29.66F WCI  23
MOUNTAIN HOME  MOCLDY    31  31 100 NW7       29.64F WCI  24
$$

IDZ016-017-230500-
SOUTHCENTRAL IDAHO


CITY           SKY/WX    TMP DP  RH WIND       PRES   REMARKS
BURLEY         LGT SNOW  34  30  85 SW13      29.65F FOG     WCI  25
JEROME         CLOUDY    32  31  96 SE7       29.65F WCI  26
TWIN FALLS     CLOUDY    33  30  88 S12       29.64F WCI  24
$$

IDZ019>023-230500-
SOUTHEAST IDAHO


CITY           SKY/WX    TMP DP  RH WIND       PRES   REMARKS
IDAHO FALLS    LGT SNOW  29  27  92 CALM      29.70F FOG
POCATELLO      LGT SNOW  34  29  82 S21       29.67S WCI  22
REXBURG        LGT SNOW  29  27  92 CALM      29.70S FOG
$$

IDZ006-010-011-018-031-032-230500-
CENTRAL IDAHO MOUNTAINS


CITY           SKY/WX    TMP DP  RH WIND       PRES   REMARKS
MCCALL         PTCLDY    26  20  77 SE8       29.57S WCI  18
HAILEY         FLURRIES  27  27 100 CALM      29.66F
STANLEY          N/A     21  19  92 CALM      29.61R
SALMON         CLOUDY    18  16  93 CALM      29.67S
CHALLIS        MOCLDY    14  13  95 NE5       29.65S WCI   6
$$

IDZ002-004-006-007-026-230500-
NORTHERN IDAHO


CITY           SKY/WX    TMP DP  RH WIND       PRES   REMARKS
LEWISTON       LGT RAIN  36  32  85 SE6       29.64R WCI  31
LOWELL           N/A     32  30  92 CALM      29.66R
COEUR D`ALENE  LGT RAIN  34  32  92 NE6       29.60R WCI  29
MULLAN PASS    LGT SNOW  24  21  88 SE6       29.49F VSB 1   WCI  17
$$



USA.gov is the U.S. government's official web portal to all federal, state and local government web resources and services.